This demonstration page uses our WeatherBlox Daily Observations layout. Learn more.

Left ArrowRight Arrow

38.20091, -84.87328

Hourly Observations for January 21, 2015

Temp ( °F °C ) Dew Point ( °F °C ) Humidity (%) Winds ( mph kmh ) Pressure ( in mb ) Visibility ( mi km ) Precip ( " mm )
12:53 am 00:53 Cloudy 43 6.1 33 0.6 68 68 W 3 6 29.98 1015 10 16 0.00 0.00
1:53 am 01:53 Cloudy 41 5 33 0.6 73 73 W 5 7 29.99 1016 10 16 0.00 0.00
2:32 am 02:32 Cloudy 41 5 33 0.6 73 73 W 3 6 30.03 1017 10 16 0.00 0.00
2:53 am 02:53 Cloudy 41 5 34 1.1 76 76 WSW 3 6 30.00 1016 10 16 0.00 0.00
4:53 am 04:53 Mostly Clear 39 3.9 33 0.6 79 79 W 5 7 30.03 1017 10 16 0.00 0.00
5:53 am 05:53 Clear 37 2.8 31 -0.6 79 79 VRB 3 6 30.04 1017 10 16 0.00 0.00
6:53 am 06:53 Clear 35 1.7 29 -1.7 78 78 WSW 3 6 30.06 1018 10 16 0.00 0.00
7:53 am 07:53 Sunny 31 -0.6 27 -2.8 85 85 SW 6 9 30.07 1018 9 14 0.00 0.00
8:53 am 08:53 Sunny 34 1.1 30 -1.1 85 85 SW 7 11 30.09 1019 10 16 0.00 0.00
9:53 am 09:53 Partly Cloudy 39 3.9 33 0.6 79 79 SW 8 13 30.11 1020 10 16 0.00 0.00
10:53 am 10:53 Sunny 44 6.7 33 0.6 65 65 SW 12 19 30.12 1020 10 16 0.00 0.00
11:53 am 11:53 Sunny 48 8.9 33 0.6 56 56 SSW 13 20 30.10 1019 10 16 0.00 0.00
12:53 pm 12:53 Sunny 50 10 31 -0.6 48 48 SW 14 22 30.08 1019 10 16 0.00 0.00
1:53 pm 13:53 Mostly Sunny 52 11.1 29 -1.7 41 41 W 9 15 30.06 1018 10 16 0.00 0.00
2:53 pm 14:53 Mostly Cloudy 53 11.7 27 -2.8 37 37 WSW 10 17 30.05 1018 10 16 0.00 0.00
3:53 pm 15:53 Partly Cloudy 52 11.1 26 -3.3 37 37 W 12 19 30.07 1018 10 16 0.00 0.00
4:53 pm 16:53 Mostly Sunny 51 10.6 24 -4.4 35 35 W 14 22 30.08 1019 10 16 0.00 0.00
5:53 pm 17:53 Mostly Cloudy 49 9.4 25 -3.9 39 39 W 9 15 30.10 1019 10 16 0.00 0.00
6:53 pm 18:53 Clear 46 7.8 25 -3.9 44 44 W 7 11 30.12 1020 10 16 0.00 0.00
7:53 pm 19:53 Partly Cloudy 44 6.7 28 -2.2 53 53 WNW 12 19 30.15 1021 10 16 0.00 0.00
8:53 pm 20:53 Clear 39 3.9 28 -2.2 65 65 NW 14 22 30.19 1023 10 16 0.00 0.00
9:53 pm 21:53 Clear 35 1.7 26 -3.3 70 70 NW 6 9 30.23 1024 10 16 0.00 0.00
10:53 pm 22:53 Clear 33 0.6 25 -3.9 72 72 WNW 3 6 30.23 1024 10 16 0.00 0.00
11:53 pm 23:53 Clear 31 -0.6 24 -4.4 76 76 W 5 7 30.24 1024 10 16 0.00 0.00

Powered by AerisWeather